Theta_e
353 349 343 333 335 337 340 338 327 323 323 323 323 323 324 324 324 325 325 325 327 328 327 325 325 327 328 328 325 324 325 324 328 336 336 337 338 338 330 335 336 336 337
352 346 346 337 332 336 339 339 333 323 323 323 323 323 323 324 324 325 326 329 329 328 324 324 324 326 327 324 330 330 330 334 338 343 345 343 341 340 334 336 337 337 336
353 346 345 343 335 331 336 338 337 324 323 323 323 323 323 324 325 327 328 328 327 323 323 323 325 326 324 329 333 336 339 340 342 346 345 343 345 340 336 337 337 337 334
355 352 346 345 339 333 332 337 338 330 323 323 323 323 324 325 325 328 328 325 323 322 323 324 326 325 323 332 335 338 342 345 346 348 346 344 340 338 337 338 336 332 329
356 354 351 345 342 335 330 335 338 335 324 324 324 324 324 325 325 325 324 323 322 322 323 325 326 321 330 333 335 339 340 343 346 347 346 342 338 338 338 335 331 321 312
355 355 352 348 342 336 330 333 339 338 327 324 324 325 325 325 324 324 325 323 322 322 324 326 322 323 330 332 334 340 340 345 347 346 345 339 338 338 335 331 323 312 310
357 358 357 350 345 337 330 329 338 339 330 324 324 325 326 325 325 325 324 322 322 323 326 324 321 327 331 332 338 341 343 346 347 346 344 340 337 335 331 320 312 310 311
356 358 358 350 348 339 331 327 335 340 335 326 326 326 327 326 326 324 323 322 322 324 326 321 323 330 331 334 340 340 341 344 346 346 343 337 335 332 323 315 310 311 310
356 357 357 354 347 339 332 328 333 339 338 331 330 331 330 327 327 325 324 323 322 325 324 322 327 331 335 336 340 342 345 346 346 345 339 335 333 326 320 311 311 310 310
351 358 356 354 348 339 332 329 332 337 339 336 333 334 333 329 328 326 325 323 323 326 323 324 330 332 343 339 341 342 346 347 347 343 338 336 331 323 316 311 311 310 309
354 358 353 351 348 341 332 329 334 337 339 339 336 336 335 331 328 326 325 323 323 325 322 327 331 338 345 346 343 343 347 346 345 342 338 335 329 320 313 311 311 310 309
351 356 354 352 347 345 336 328 328 336 340 339 337 337 336 333 328 327 325 324 323 325 323 330 335 346 347 347 347 345 348 345 344 341 337 332 326 316 311 312 312 310 310
337 351 351 353 347 345 344 332 326 331 339 339 338 337 336 332 329 328 326 324 324 324 328 339 346 347 344 343 345 348 346 344 341 340 336 330 324 318 316 314 313 310 309
329 351 352 352 351 342 342 339 326 325 331 336 337 336 335 331 331 334 329 328 325 324 335 346 347 345 343 343 344 344 342 342 341 339 337 333 327 322 319 319 315 312 311
344 351 352 351 350 345 340 341 340 327 326 332 333 334 330 331 333 338 333 336 327 336 344 343 345 346 343 341 343 342 342 341 340 338 336 332 328 324 321 322 318 318 316
325 345 347 344 347 345 343 343 341 341 328 324 328 325 325 336 340 342 334 339 336 340 342 342 346 345 342 343 342 343 343 341 339 338 334 331 328 325 322 323 319 320 318
321 328 345 348 348 346 340 348 343 342 338 332 325 321 325 337 341 342 336 340 338 337 341 345 346 344 342 345 343 343 342 340 339 336 333 331 328 325 322 324 320 321 319
322 322 328 346 347 351 350 349 345 343 340 338 336 331 331 334 338 336 337 340 338 338 342 345 346 345 342 343 343 343 341 338 337 335 333 331 327 322 324 324 321 321 319
320 322 324 330 334 340 345 349 347 345 339 339 338 338 338 335 334 336 336 336 337 339 342 343 345 344 344 343 343 342 339 337 336 332 333 331 323 325 324 325 323 321 318
319 320 320 323 327 327 334 342 347 343 341 340 339 339 339 340 334 337 338 334 341 342 342 344 344 343 344 343 343 342 338 337 337 333 332 326 327 325 325 324 323 322 319
320 320 320 320 321 324 334 339 344 347 344 343 342 340 341 342 338 336 338 339 342 344 345 346 344 341 343 343 342 343 337 335 334 331 329 325 326 325 324 324 323 322 319
321 320 320 320 322 322 323 335 340 346 345 346 344 343 344 343 341 333 334 343 344 343 344 346 343 341 344 344 342 339 334 333 332 331 329 327 325 325 324 324 322 322 319
320 320 320 320 320 321 319 321 335 340 343 345 346 346 344 343 342 332 335 343 344 343 342 343 342 343 341 344 343 335 337 335 333 332 326 327 325 324 325 324 322 320 318
320 320 320 319 320 320 319 320 332 339 342 345 346 344 344 343 341 336 331 343 344 343 339 345 344 343 341 343 337 336 335 330 332 331 329 328 326 325 325 323 323 319 318
320 320 322 323 321 322 320 320 326 335 340 342 345 343 341 337 341 332 329 344 338 340 338 343 343 343 343 341 336 331 335 331 324 323 325 328 328 327 325 323 320 319 318
320 320 321 322 325 321 321 321 331 339 339 340 342 344 343 340 341 332 336 345 341 342 344 346 346 339 344 340 334 332 330 322 322 323 324 325 327 327 323 322 320 319 318
Wind_Speed
17 23 21 19 20 21 21 19 17 18 22 23 23 22 20 18 16 14 12 10 9 10 10 9 9 8 8 8 9 10 12 11 9 11 8 5 7 11 10 7 7 8 9
13 21 20 18 19 20 21 19 18 17 20 22 22 21 19 18 15 13 10 8 8 8 8 9 8 8 8 10 12 13 13 12 9 8 4 6 6 9 10 8 8 9 10
10 14 18 18 18 19 20 20 18 16 18 19 20 20 19 17 14 11 9 7 6 6 7 7 8 8 9 12 13 13 12 9 8 7 6 7 9 9 8 10 10 12 13
6 7 15 18 19 18 20 20 18 17 18 19 19 18 17 15 13 11 8 7 5 5 5 6 7 8 9 11 13 11 10 8 7 5 10 8 9 8 10 11 12 14 16
3 3 13 17 19 19 20 20 19 18 18 18 18 17 16 14 12 10 8 6 5 4 4 5 7 7 9 10 12 7 7 6 3 3 7 9 11 10 11 12 13 15 14
8 6 6 17 19 19 20 22 21 19 20 19 18 17 15 13 11 10 7 6 5 4 3 4 6 7 8 10 12 6 6 5 6 6 5 8 11 11 12 14 16 15 14
12 13 8 16 20 21 20 21 21 19 19 20 18 16 14 13 11 10 8 6 4 3 3 3 5 7 9 11 11 7 8 8 4 5 6 8 11 11 14 15 14 14 14
11 13 10 10 21 22 20 21 22 20 18 20 19 16 14 12 11 10 8 6 5 4 2 4 5 9 11 13 10 5 6 2 1 4 6 10 11 13 14 14 13 14 16
10 13 11 10 21 22 20 20 22 22 20 20 19 17 15 13 11 10 8 7 6 4 2 3 6 10 12 12 8 6 4 3 2 4 7 11 12 13 14 13 14 15 16
9 13 10 7 15 24 22 21 22 22 21 20 20 18 16 13 12 10 9 8 7 5 3 5 7 8 12 11 6 6 1 3 1 4 6 13 12 14 14 14 14 16 17
12 17 12 10 11 24 23 23 23 23 23 21 21 19 17 15 13 11 10 9 8 5 4 6 8 9 9 10 7 5 6 5 2 2 7 13 12 14 14 14 17 17 16
13 19 14 12 13 25 24 24 24 25 26 26 24 21 19 17 15 13 12 10 9 7 5 7 9 9 7 6 5 3 11 4 2 2 10 12 12 14 14 15 17 17 16
11 19 16 14 17 26 27 25 25 27 29 28 26 24 21 19 17 16 15 13 10 9 9 11 9 6 6 6 5 4 8 10 2 6 11 10 13 14 15 16 18 16 16
14 22 20 16 15 21 25 25 26 28 29 29 29 26 23 23 21 17 16 13 12 11 12 9 6 8 2 4 4 7 7 4 4 8 10 10 14 15 16 16 19 16 19
4 9 17 17 18 18 24 20 19 26 30 31 30 28 26 25 24 18 15 9 10 13 11 9 10 11 9 7 2 2 5 1 2 5 7 9 12 13 15 16 19 18 21
7 4 8 11 19 21 25 23 24 22 27 31 32 30 30 29 26 24 19 15 10 13 10 9 11 17 10 10 11 8 5 5 2 7 6 6 8 11 14 15 18 18 22
16 8 9 11 14 22 27 23 29 26 24 26 30 30 31 34 29 28 23 19 17 12 13 14 17 15 12 11 7 7 4 6 8 6 3 6 8 11 12 13 17 17 21
12 14 12 12 15 19 27 29 26 29 29 27 27 29 29 37 33 29 29 24 24 20 17 16 16 11 10 11 8 6 5 6 6 7 6 7 11 10 9 10 17 17 20
18 15 18 15 21 22 21 38 30 30 34 33 32 30 28 36 34 31 30 28 28 25 26 18 18 16 13 10 6 7 9 8 6 7 7 10 9 11 12 11 18 18 19
19 22 25 23 26 30 28 23 33 38 35 38 39 37 34 32 35 33 31 25 26 25 22 21 20 16 11 9 8 12 12 10 8 6 6 5 4 8 8 12 15 17 14
22 20 24 24 26 31 30 28 34 38 37 40 39 41 38 35 34 34 31 28 26 27 25 24 20 18 14 12 11 14 8 11 9 8 4 1 3 4 6 8 12 15 14
22 23 24 26 26 26 33 35 32 41 41 37 39 43 39 38 33 36 34 30 31 29 28 24 23 21 18 16 15 11 8 10 9 11 9 4 6 7 6 8 14 13 13
13 17 21 26 28 31 34 37 35 34 38 46 37 42 40 39 38 38 38 31 31 33 29 26 24 21 19 20 16 12 7 5 10 10 12 9 9 8 7 8 8 9 13
16 20 26 29 31 33 29 38 37 39 39 45 49 42 43 44 42 42 42 37 33 32 29 27 24 20 21 18 14 18 11 8 6 7 10 10 11 9 5 5 2 4 13
12 16 17 26 34 33 31 37 40 41 40 40 51 46 45 47 38 43 42 37 33 29 32 27 24 23 23 18 12 20 14 9 5 7 6 11 14 9 6 5 2 6 14
18 22 20 20 25 35 34 35 37 40 41 40 43 42 54 53 44 46 42 36 31 30 30 27 23 21 24 18 14 11 9 8 9 7 6 3 9 13 8 4 4 10 12
Wind_Direction
156 153 156 153 153 150 146 139 136 143 141 143 143 143 141 141 141 138 135 131 123 112 103 99 97 93 81 66 57 57 65 74 67 61 48 49 33 25 33 17 5 358 356
146 158 158 155 156 154 151 145 140 151 149 147 146 145 143 142 141 135 133 127 117 110 103 101 96 81 65 57 61 65 73 71 65 48 29 41 26 27 29 29 12 4 2
128 168 163 161 161 159 158 152 148 153 155 152 152 148 147 146 140 136 135 128 119 110 103 97 87 69 61 67 71 74 73 76 58 50 79 75 51 32 30 31 13 4 360
152 155 178 170 169 166 163 162 155 154 162 159 158 153 150 149 144 142 141 130 125 114 101 91 76 66 69 72 79 78 81 67 47 73 95 58 48 37 26 20 11 359 348
175 185 196 185 177 174 171 168 164 159 166 166 165 160 158 155 150 146 146 140 134 120 107 86 71 70 74 68 75 68 80 76 53 97 58 52 49 33 21 15 3 354 355
194 194 163 201 189 181 178 176 173 168 169 172 171 169 165 160 156 150 152 156 146 134 117 77 68 76 70 64 75 69 70 53 155 97 84 58 28 26 18 8 360 3 5
189 186 183 200 198 188 185 183 179 178 174 173 175 175 173 168 164 161 162 167 161 148 122 70 70 74 62 62 83 69 67 73 99 91 54 30 26 20 12 5 8 10 5
200 193 193 181 200 195 188 186 184 183 181 178 177 180 181 180 176 170 168 171 174 169 133 78 75 67 62 77 87 73 78 78 59 69 30 28 20 14 10 13 14 11 7
213 205 193 187 196 198 188 188 188 187 188 185 183 184 188 189 186 180 177 176 182 179 131 89 81 78 83 93 97 81 87 69 106 40 36 25 19 9 12 17 15 12 14
223 197 215 212 203 197 189 187 190 192 193 192 191 192 193 195 193 189 188 186 188 183 157 109 96 105 93 103 107 104 152 359 128 29 30 22 11 2 13 16 14 15 17
200 205 222 231 216 201 195 190 190 193 196 199 197 198 198 202 200 197 199 196 192 190 174 123 122 120 106 94 117 154 166 248 217 0 21 19 4 4 15 13 16 19 19
210 209 212 212 205 203 202 198 195 196 195 199 202 202 203 204 206 205 208 207 199 187 169 140 143 113 101 109 103 189 171 220 220 324 21 18 4 8 16 20 17 16 18
239 238 231 219 197 203 208 206 203 201 200 199 203 207 206 204 207 211 209 208 204 190 161 147 140 143 122 94 92 252 221 202 203 16 25 14 5 14 18 22 15 16 15
326 212 211 205 197 201 213 207 211 210 209 207 206 206 207 206 203 218 212 210 209 191 177 165 147 153 121 111 186 182 189 167 11 8 356 356 4 10 20 18 16 17 18
28 191 205 209 203 182 212 215 221 221 217 213 213 210 206 207 206 212 214 188 194 174 169 156 166 167 171 163 209 215 133 101 47 346 353 358 359 2 14 16 14 18 17
273 290 220 226 244 223 213 217 233 238 229 221 219 213 205 202 207 215 214 189 188 185 187 210 193 184 208 196 195 214 266 285 307 302 342 348 355 359 6 9 10 13 15
259 253 241 246 254 226 221 213 227 234 232 227 223 215 205 199 203 213 211 209 204 192 214 201 195 191 200 204 218 237 246 264 283 302 281 317 337 346 356 3 3 8 11
240 252 243 244 248 237 218 226 224 224 229 225 223 217 208 205 206 209 203 203 201 197 198 201 211 219 209 199 223 251 213 229 247 280 276 309 336 359 350 360 3 1 7
256 246 238 236 250 257 239 231 235 221 219 223 223 224 221 214 210 209 209 207 201 200 207 210 219 229 206 215 219 196 195 228 236 233 264 309 339 347 348 340 352 356 8
241 243 247 242 244 257 262 242 227 217 216 220 223 223 226 223 213 209 211 204 198 205 205 201 208 205 215 212 208 187 189 219 232 234 256 301 321 331 334 324 339 354 4
253 240 241 242 240 249 260 254 231 222 218 218 220 221 226 226 217 212 208 200 205 205 201 202 207 212 196 204 194 186 205 221 234 234 243 228 210 304 291 325 338 350 355
260 248 240 240 237 239 252 259 251 234 222 221 219 226 221 225 222 213 202 205 207 210 209 211 221 208 213 203 193 204 196 205 218 219 215 228 246 254 249 291 326 344 350
269 262 259 250 247 248 259 258 254 250 242 227 221 221 219 226 230 217 201 205 210 212 213 211 209 210 213 200 218 194 193 208 199 197 203 220 240 241 250 289 341 344 344
261 276 279 271 253 252 260 256 248 249 245 234 230 220 230 228 230 220 204 205 208 215 212 210 214 217 211 207 204 211 191 152 172 180 202 218 233 249 231 292 300 336 346
266 274 290 285 265 253 248 256 247 249 249 252 232 227 219 226 223 219 207 208 209 212 209 209 214 218 208 206 208 209 210 222 204 180 177 210 226 228 207 199 257 330 341
270 275 287 312 285 259 243 256 246 248 249 248 243 230 225 214 218 217 211 205 201 204 207 207 208 206 205 203 194 187 186 185 182 167 161 141 191 192 170 213 248 319 335